Time,TemperatureF,DewpointF,PressureIn,WindDirection,WindDirectionDegrees,WindSpeedMPH,WindSpeedGustMPH,Humidity,HourlyPrecipIn,Conditions,Clouds,dailyrainin,SoftwareType,DateUTC
2013-02-24 00:04:00,39.7,33.1,30.17,SW,233,0.0,0.0,77,0.00,,,0.00,WeatherCatV1.13B119,2013-02-24 08:04:00,
2013-02-24 00:09:00,39.5,32.9,30.17,WSW,250,0.0,2.0,77,0.00,,,0.00,WeatherCatV1.13B119,2013-02-24 08:09:00,
2013-02-24 00:14:00,39.4,33.1,30.17,WSW,245,0.0,0.0,78,0.00,,,0.00,WeatherCatV1.13B119,2013-02-24 08:14:00,
2013-02-24 00:19:00,39.3,33.0,30.17,WSW,250,1.0,1.0,78,0.00,,,0.00,WeatherCatV1.13B119,2013-02-24 08:19:00,
2013-02-24 00:24:00,39.1,32.8,30.18,WSW,250,0.0,0.0,78,0.00,,,0.00,WeatherCatV1.13B119,2013-02-24 08:24:00,
2013-02-24 00:29:00,38.8,32.2,30.18,WSW,241,0.0,0.0,77,0.00,,,0.00,WeatherCatV1.13B119,2013-02-24 08:29:00,
2013-02-24 00:34:00,38.4,31.5,30.18,WSW,240,0.0,0.0,76,0.00,,,0.00,WeatherCatV1.13B119,2013-02-24 08:34:00,
2013-02-24 00:39:00,38.1,31.5,30.18,WSW,244,0.0,1.0,77,0.00,,,0.00,WeatherCatV1.13B119,2013-02-24 08:39:00,
2013-02-24 00:44:00,38.2,32.0,30.18,SW,236,0.0,0.0,78,0.00,,,0.00,WeatherCatV1.13B119,2013-02-24 08:44:00,
2013-02-24 00:49:00,38.3,32.1,30.18,WSW,238,0.0,1.0,78,0.00,,,0.00,WeatherCatV1.13B119,2013-02-24 08:49:00,
2013-02-24 00:54:00,38.4,32.2,30.18,WSW,244,1.0,2.0,78,0.00,,,0.00,WeatherCatV1.13B119,2013-02-24 08:54:00,
2013-02-24 00:59:00,38.5,32.6,30.18,WSW,255,0.0,1.0,79,0.00,,,0.00,WeatherCatV1.13B119,2013-02-24 08:59:00,
2013-02-24 01:04:00,38.9,32.3,30.18,SSE,149,0.0,0.0,77,0.00,,,0.00,WeatherCatV1.13B119,2013-02-24 09:04:00,
2013-02-24 01:09:00,39.4,32.1,30.18,SW,236,0.0,0.0,75,0.00,,,0.00,WeatherCatV1.13B119,2013-02-24 09:09:00,
2013-02-24 01:14:00,39.7,32.1,30.18,WSW,253,0.0,3.0,74,0.00,,,0.00,WeatherCatV1.13B119,2013-02-24 09:14:00,
2013-02-24 01:19:00,39.8,32.2,30.18,WSW,257,1.0,2.0,74,0.00,,,0.00,WeatherCatV1.13B119,2013-02-24 09:19:00,
2013-02-24 01:24:00,39.6,32.3,30.18,SW,233,4.0,4.0,75,0.00,,,0.00,WeatherCatV1.13B119,2013-02-24 09:24:00,
2013-02-24 01:29:00,39.5,31.9,30.18,WSW,252,2.0,3.0,74,0.00,,,0.00,WeatherCatV1.13B119,2013-02-24 09:29:00,
2013-02-24 01:34:00,39.5,31.9,30.18,SSW,200,1.0,3.0,74,0.00,,,0.00,WeatherCatV1.13B119,2013-02-24 09:34:00,
2013-02-24 01:39:00,39.6,32.0,30.18,NNW,335,1.0,2.0,74,0.00,,,0.00,WeatherCatV1.13B119,2013-02-24 09:39:00,
2013-02-24 01:44:00,39.5,31.9,30.18,SSW,200,1.0,3.0,74,0.00,,,0.00,WeatherCatV1.13B119,2013-02-24 09:44:00,
2013-02-24 01:49:00,39.4,31.8,30.18,SW,225,1.0,2.0,74,0.00,,,0.00,WeatherCatV1.13B119,2013-02-24 09:49:00,
2013-02-24 01:54:00,39.1,31.9,30.18,SE,146,1.0,2.0,75,0.00,,,0.00,WeatherCatV1.13B119,2013-02-24 09:54:00,
2013-02-24 01:59:00,38.8,31.6,30.18,WSW,238,1.0,2.0,75,0.00,,,0.00,WeatherCatV1.13B119,2013-02-24 09:59:00,
2013-02-24 02:04:00,38.5,31.6,30.17,WSW,256,0.0,2.0,76,0.00,,,0.00,WeatherCatV1.13B119,2013-02-24 10:04:00,
2013-02-24 02:09:00,38.0,31.4,30.17,SW,233,0.0,2.0,77,0.00,,,0.00,WeatherCatV1.13B119,2013-02-24 10:09:00,
2013-02-24 02:14:00,37.6,31.4,30.17,WSW,248,0.0,0.0,78,0.00,,,0.00,WeatherCatV1.13B119,2013-02-24 10:14:00,
2013-02-24 02:19:00,37.4,31.2,30.17,SW,217,0.0,0.0,78,0.00,,,0.00,WeatherCatV1.13B119,2013-02-24 10:19:00,
2013-02-24 02:24:00,37.4,31.2,30.17,SW,225,0.0,0.0,78,0.00,,,0.00,WeatherCatV1.13B119,2013-02-24 10:24:00,
2013-02-24 02:29:00,37.3,31.1,30.17,WNW,282,0.0,0.0,78,0.00,,,0.00,WeatherCatV1.13B119,2013-02-24 10:29:00,
2013-02-24 02:34:00,37.1,30.9,30.17,SW,221,0.0,0.0,78,0.00,,,0.00,WeatherCatV1.13B119,2013-02-24 10:34:00,
2013-02-24 02:39:00,36.8,30.9,30.16,WSW,239,1.0,4.0,79,0.00,,,0.00,WeatherCatV1.13B119,2013-02-24 10:39:00,
2013-02-24 02:44:00,36.8,30.9,30.16,SW,229,0.0,3.0,79,0.00,,,0.00,WeatherCatV1.13B119,2013-02-24 10:44:00,
2013-02-24 02:49:00,36.8,30.9,30.16,SW,229,1.0,2.0,79,0.00,,,0.00,WeatherCatV1.13B119,2013-02-24 10:49:00,
2013-02-24 02:54:00,37.0,31.1,30.16,WSW,253,0.0,2.0,79,0.00,,,0.00,WeatherCatV1.13B119,2013-02-24 10:54:00,
2013-02-24 02:59:00,37.4,31.2,30.16,SW,232,4.0,4.0,78,0.00,,,0.00,WeatherCatV1.13B119,2013-02-24 10:59:00,
2013-02-24 03:04:00,37.8,31.2,30.15,WSW,250,1.0,3.0,77,0.00,,,0.00,WeatherCatV1.13B119,2013-02-24 11:04:00,
2013-02-24 03:09:00,37.9,31.3,30.15,West,277,2.0,2.0,77,0.00,,,0.00,WeatherCatV1.13B119,2013-02-24 11:09:00,
2013-02-24 03:14:00,38.0,31.1,30.16,WSW,252,2.0,5.0,76,0.00,,,0.00,WeatherCatV1.13B119,2013-02-24 11:14:00,
2013-02-24 03:19:00,38.2,31.0,30.15,SSW,206,0.0,3.0,75,0.00,,,0.00,WeatherCatV1.13B119,2013-02-24 11:19:00,
2013-02-24 03:24:00,38.2,31.3,30.16,WSW,240,2.0,2.0,76,0.00,,,0.00,WeatherCatV1.13B119,2013-02-24 11:24:00,
2013-02-24 03:29:00,38.2,31.3,30.15,SSW,206,2.0,3.0,76,0.00,,,0.00,WeatherCatV1.13B119,2013-02-24 11:29:00,
2013-02-24 03:34:00,38.3,31.4,30.16,West,264,3.0,11.0,76,0.00,,,0.00,WeatherCatV1.13B119,2013-02-24 11:34:00,
2013-02-24 03:39:00,38.1,31.2,30.15,WSW,244,2.0,2.0,76,0.00,,,0.00,WeatherCatV1.13B119,2013-02-24 11:39:00,
2013-02-24 03:44:00,38.2,31.3,30.15,NW,311,1.0,2.0,76,0.00,,,0.00,WeatherCatV1.13B119,2013-02-24 11:44:00,
2013-02-24 03:49:00,38.2,31.3,30.15,South,188,1.0,3.0,76,0.00,,,0.00,WeatherCatV1.13B119,2013-02-24 11:49:00,
2013-02-24 03:54:00,37.9,31.3,30.16,NNE,17,1.0,4.0,77,0.00,,,0.00,WeatherCatV1.13B119,2013-02-24 11:54:00,
2013-02-24 03:59:00,37.9,31.3,30.16,WNW,293,0.0,3.0,77,0.00,,,0.00,WeatherCatV1.13B119,2013-02-24 11:59:00,
2013-02-24 04:04:00,37.9,31.3,30.16,WSW,240,2.0,2.0,77,0.00,,,0.00,WeatherCatV1.13B119,2013-02-24 12:04:00,
2013-02-24 04:09:00,37.8,31.2,30.16,SE,142,3.0,4.0,77,0.00,,,0.00,WeatherCatV1.13B119,2013-02-24 12:09:00,
2013-02-24 04:14:00,38.1,31.5,30.16,ESE,114,4.0,4.0,77,0.00,,,0.00,WeatherCatV1.13B119,2013-02-24 12:14:00,
2013-02-24 04:19:00,38.1,31.5,30.15,SW,224,1.0,4.0,77,0.00,,,0.00,WeatherCatV1.13B119,2013-02-24 12:19:00,
2013-02-24 04:24:00,38.1,31.5,30.15,SW,220,4.0,4.0,77,0.00,,,0.00,WeatherCatV1.13B119,2013-02-24 12:24:00,
2013-02-24 04:29:00,38.1,31.5,30.16,WNW,290,2.0,2.0,77,0.00,,,0.00,WeatherCatV1.13B119,2013-02-24 12:29:00,
2013-02-24 04:34:00,38.2,31.3,30.15,SSW,196,1.0,3.0,76,0.00,,,0.00,WeatherCatV1.13B119,2013-02-24 12:34:00,
2013-02-24 04:39:00,38.3,31.1,30.15,SSW,213,2.0,5.0,75,0.00,,,0.00,WeatherCatV1.13B119,2013-02-24 12:39:00,
2013-02-24 04:44:00,38.2,31.0,30.15,SSE,167,1.0,3.0,75,0.00,,,0.00,WeatherCatV1.13B119,2013-02-24 12:44:00,
2013-02-24 04:49:00,38.2,31.0,30.16,WSW,249,0.0,2.0,75,0.00,,,0.00,WeatherCatV1.13B119,2013-02-24 12:49:00,
2013-02-24 04:54:00,38.3,30.8,30.16,WSW,246,3.0,3.0,74,0.00,,,0.00,WeatherCatV1.13B119,2013-02-24 12:54:00,
2013-02-24 04:59:00,38.6,30.7,30.16,WSW,246,2.0,2.0,73,0.00,,,0.00,WeatherCatV1.13B119,2013-02-24 12:59:00,
2013-02-24 05:04:00,38.5,30.6,30.16,WNW,291,2.0,4.0,73,0.00,,,0.00,WeatherCatV1.13B119,2013-02-24 13:04:00,
2013-02-24 05:09:00,38.3,30.4,30.16,WNW,292,2.0,4.0,73,0.00,,,0.00,WeatherCatV1.13B119,2013-02-24 13:09:00,
2013-02-24 05:14:00,38.6,30.0,30.16,SSW,202,1.0,7.0,71,0.00,,,0.00,WeatherCatV1.13B119,2013-02-24 13:14:00,
2013-02-24 05:19:00,38.9,29.6,30.16,West,261,4.0,5.0,69,0.00,,,0.00,WeatherCatV1.13B119,2013-02-24 13:19:00,
2013-02-24 05:24:00,39.2,29.5,30.16,West,272,3.0,8.0,68,0.00,,,0.00,WeatherCatV1.13B119,2013-02-24 13:24:00,
2013-02-24 05:29:00,39.4,29.0,30.16,SE,140,6.0,6.0,66,0.00,,,0.00,WeatherCatV1.13B119,2013-02-24 13:29:00,
2013-02-24 05:34:00,39.7,28.5,30.16,WSW,249,2.0,4.0,64,0.00,,,0.00,WeatherCatV1.13B119,2013-02-24 13:34:00,
2013-02-24 05:39:00,39.8,28.2,30.16,SSW,213,1.0,3.0,63,0.00,,,0.00,WeatherCatV1.13B119,2013-02-24 13:39:00,
2013-02-24 05:44:00,39.8,27.9,30.17,WNW,292,2.0,6.0,62,0.00,,,0.00,WeatherCatV1.13B119,2013-02-24 13:44:00,
2013-02-24 05:49:00,40.2,27.8,30.17,SSW,211,4.0,5.0,61,0.00,,,0.00,WeatherCatV1.13B119,2013-02-24 13:49:00,
2013-02-24 05:54:00,40.7,27.9,30.17,WSW,237,1.0,4.0,60,0.00,,,0.00,WeatherCatV1.13B119,2013-02-24 13:54:00,
2013-02-24 05:59:00,40.4,28.0,30.17,NNW,336,1.0,2.0,61,0.00,,,0.00,WeatherCatV1.13B119,2013-02-24 13:59:00,
2013-02-24 06:04:00,40.3,27.5,30.17,WNW,290,0.0,2.0,60,0.00,,,0.00,WeatherCatV1.13B119,2013-02-24 14:04:00,
2013-02-24 06:09:00,40.2,27.4,30.17,WSW,239,0.0,2.0,60,0.00,,,0.00,WeatherCatV1.13B119,2013-02-24 14:09:00,
2013-02-24 06:14:00,40.0,27.7,30.17,SW,232,0.0,1.0,61,0.00,,,0.00,WeatherCatV1.13B119,2013-02-24 14:14:00,
2013-02-24 06:19:00,39.5,27.6,30.17,WSW,242,1.0,3.0,62,0.00,,,0.00,WeatherCatV1.13B119,2013-02-24 14:19:00,
2013-02-24 06:24:00,39.2,27.7,30.17,West,271,1.0,5.0,63,0.00,,,0.00,WeatherCatV1.13B119,2013-02-24 14:24:00,
2013-02-24 06:29:00,39.6,27.7,30.17,WSW,239,3.0,4.0,62,0.00,,,0.00,WeatherCatV1.13B119,2013-02-24 14:29:00,
2013-02-24 06:34:00,39.7,27.8,30.17,SSE,149,0.0,0.0,62,0.00,,,0.00,WeatherCatV1.13B119,2013-02-24 14:34:00,
2013-02-24 06:39:00,39.6,27.7,30.17,WSW,237,0.0,0.0,62,0.00,,,0.00,WeatherCatV1.13B119,2013-02-24 14:39:00,
2013-02-24 06:44:00,39.4,27.9,30.17,WSW,244,1.0,2.0,63,0.00,,,0.00,WeatherCatV1.13B119,2013-02-24 14:44:00,
2013-02-24 06:49:00,38.8,28.1,30.17,SW,229,3.0,3.0,65,0.00,,,0.00,WeatherCatV1.13B119,2013-02-24 14:49:00,
2013-02-24 06:54:00,39.1,28.0,30.18,SSW,204,1.0,3.0,64,0.00,,,0.00,WeatherCatV1.13B119,2013-02-24 14:54:00,
2013-02-24 06:59:00,39.5,28.3,30.17,SSW,194,4.0,4.0,64,0.00,,,0.00,WeatherCatV1.13B119,2013-02-24 14:59:00,
2013-02-24 07:04:00,39.9,28.3,30.18,WSW,256,1.0,2.0,63,0.00,,,0.00,WeatherCatV1.13B119,2013-02-24 15:04:00,
2013-02-24 07:09:00,40.2,28.6,30.18,NNE,23,2.0,3.0,63,0.00,,,0.00,WeatherCatV1.13B119,2013-02-24 15:09:00,
2013-02-24 07:14:00,40.9,28.9,30.18,WSW,256,0.0,1.0,62,0.00,,,0.00,WeatherCatV1.13B119,2013-02-24 15:14:00,
2013-02-24 07:19:00,41.5,29.5,30.18,WSW,257,0.0,0.0,62,0.00,,,0.00,WeatherCatV1.13B119,2013-02-24 15:19:00,
2013-02-24 07:24:00,42.2,29.3,30.18,NNW,335,3.0,6.0,60,0.00,,,0.00,WeatherCatV1.13B119,2013-02-24 15:24:00,
2013-02-24 07:29:00,42.8,29.5,30.17,ESE,108,3.0,6.0,59,0.00,,,0.00,WeatherCatV1.13B119,2013-02-24 15:29:00,
2013-02-24 07:34:00,43.5,28.4,30.17,WNW,302,1.0,5.0,55,0.00,,,0.00,WeatherCatV1.13B119,2013-02-24 15:34:00,
2013-02-24 07:39:00,44.3,28.3,30.17,SSW,200,4.0,4.0,53,0.00,,,0.00,WeatherCatV1.13B119,2013-02-24 15:39:00,
2013-02-24 07:44:00,45.0,29.8,30.17,SSE,157,1.0,12.0,55,0.00,,,0.00,WeatherCatV1.13B119,2013-02-24 15:44:00,
2013-02-24 07:49:00,45.3,29.6,30.17,NW,326,5.0,12.0,54,0.00,,,0.00,WeatherCatV1.13B119,2013-02-24 15:49:00,
2013-02-24 07:54:00,45.5,27.5,30.18,West,259,3.0,9.0,49,0.00,,,0.00,WeatherCatV1.13B119,2013-02-24 15:54:00,
2013-02-24 07:59:00,45.9,28.3,30.18,West,272,2.0,3.0,50,0.00,,,0.00,WeatherCatV1.13B119,2013-02-24 15:59:00,
2013-02-24 08:04:00,46.1,29.0,30.18,SW,223,4.0,4.0,51,0.00,,,0.00,WeatherCatV1.13B119,2013-02-24 16:04:00,
2013-02-24 08:09:00,46.5,29.8,30.18,NW,306,2.0,2.0,52,0.00,,,0.00,WeatherCatV1.13B119,2013-02-24 16:09:00,
2013-02-24 08:14:00,47.0,28.8,30.18,East,87,2.0,2.0,49,0.00,,,0.00,WeatherCatV1.13B119,2013-02-24 16:14:00,
2013-02-24 08:19:00,47.0,28.3,30.18,ESE,122,1.0,3.0,48,0.00,,,0.00,WeatherCatV1.13B119,2013-02-24 16:19:00,
2013-02-24 08:24:00,47.6,28.9,30.18,NE,47,9.0,9.0,48,0.00,,,0.00,WeatherCatV1.13B119,2013-02-24 16:24:00,
2013-02-24 08:29:00,48.2,28.9,30.18,East,94,1.0,4.0,47,0.00,,,0.00,WeatherCatV1.13B119,2013-02-24 16:29:00,
2013-02-24 08:34:00,48.8,27.3,30.18,NNE,20,3.0,9.0,43,0.00,,,0.00,WeatherCatV1.13B119,2013-02-24 16:34:00,
2013-02-24 08:39:00,49.0,25.7,30.18,NNE,29,2.0,11.0,40,0.00,,,0.00,WeatherCatV1.13B119,2013-02-24 16:39:00,
2013-02-24 08:44:00,49.6,26.9,30.18,ENE,66,3.0,7.0,41,0.00,,,0.00,WeatherCatV1.13B119,2013-02-24 16:44:00,
2013-02-24 08:49:00,50.0,26.6,30.18,NNW,335,3.0,5.0,40,0.00,,,0.00,WeatherCatV1.13B119,2013-02-24 16:49:00,
2013-02-24 08:54:00,50.2,28.6,30.18,ENE,76,0.0,3.0,43,0.00,,,0.00,WeatherCatV1.13B119,2013-02-24 16:54:00,
2013-02-24 08:59:00,50.6,26.6,30.18,East,101,3.0,5.0,39,0.00,,,0.00,WeatherCatV1.13B119,2013-02-24 16:59:00,
2013-02-24 09:04:00,50.9,25.6,30.18,NE,54,6.0,10.0,37,0.00,,,0.00,WeatherCatV1.13B119,2013-02-24 17:04:00,
2013-02-24 09:09:00,51.1,26.4,30.18,NE,55,4.0,7.0,38,0.00,,,0.00,WeatherCatV1.13B119,2013-02-24 17:09:00,
2013-02-24 09:14:00,51.2,25.2,30.18,NE,50,2.0,5.0,36,0.00,,,0.00,WeatherCatV1.13B119,2013-02-24 17:14:00,
2013-02-24 09:19:00,51.7,26.3,30.18,NE,35,5.0,7.0,37,0.00,,,0.00,WeatherCatV1.13B119,2013-02-24 17:19:00,
2013-02-24 09:24:00,51.9,27.7,30.18,East,91,2.0,5.0,39,0.00,,,0.00,WeatherCatV1.13B119,2013-02-24 17:24:00,
2013-02-24 09:29:00,52.1,26.6,30.18,East,86,2.0,6.0,37,0.00,,,0.00,WeatherCatV1.13B119,2013-02-24 17:29:00,
2013-02-24 09:34:00,52.5,25.6,30.18,North,350,2.0,4.0,35,0.00,,,0.00,WeatherCatV1.13B119,2013-02-24 17:34:00,
2013-02-24 09:39:00,52.6,25.7,30.18,NE,43,2.0,4.0,35,0.00,,,0.00,WeatherCatV1.13B119,2013-02-24 17:39:00,
2013-02-24 09:44:00,52.7,25.1,30.18,NE,43,3.0,7.0,34,0.00,,,0.00,WeatherCatV1.13B119,2013-02-24 17:44:00,
2013-02-24 09:49:00,53.3,27.0,30.18,NNE,26,3.0,3.0,36,0.00,,,0.00,WeatherCatV1.13B119,2013-02-24 17:49:00,
2013-02-24 09:54:00,53.4,24.3,30.17,NE,49,3.0,5.0,32,0.00,,,0.00,WeatherCatV1.13B119,2013-02-24 17:54:00,
2013-02-24 09:59:00,53.9,26.9,30.17,East,80,1.0,4.0,35,0.00,,,0.00,WeatherCatV1.13B119,2013-02-24 17:59:00,
2013-02-24 10:04:00,54.2,26.5,30.17,NE,49,1.0,5.0,34,0.00,,,0.00,WeatherCatV1.13B119,2013-02-24 18:04:00,
2013-02-24 10:09:00,54.5,28.8,30.17,NNE,31,0.0,2.0,37,0.00,,,0.00,WeatherCatV1.13B119,2013-02-24 18:09:00,
2013-02-24 10:14:00,54.7,28.9,30.17,SW,225,2.0,10.0,37,0.00,,,0.00,WeatherCatV1.13B119,2013-02-24 18:14:00,
2013-02-24 10:19:00,55.2,27.3,30.17,NE,51,1.0,6.0,34,0.00,,,0.00,WeatherCatV1.13B119,2013-02-24 18:19:00,
2013-02-24 10:24:00,55.1,26.5,30.17,NE,53,1.0,2.0,33,0.00,,,0.00,WeatherCatV1.13B119,2013-02-24 18:24:00,
2013-02-24 10:29:00,55.3,25.2,30.17,ENE,63,6.0,10.0,31,0.00,,,0.00,WeatherCatV1.13B119,2013-02-24 18:29:00,
2013-02-24 10:34:00,55.3,26.7,30.17,East,87,3.0,6.0,33,0.00,,,0.00,WeatherCatV1.13B119,2013-02-24 18:34:00,
2013-02-24 10:39:00,55.4,26.8,30.17,SE,138,3.0,4.0,33,0.00,,,0.00,WeatherCatV1.13B119,2013-02-24 18:39:00,
2013-02-24 10:44:00,56.3,27.6,30.17,SW,214,1.0,2.0,33,0.00,,,0.00,WeatherCatV1.13B119,2013-02-24 18:44:00,
2013-02-24 10:49:00,56.8,25.7,30.17,SE,146,1.0,3.0,30,0.00,,,0.00,WeatherCatV1.13B119,2013-02-24 18:49:00,
2013-02-24 10:54:00,57.2,26.1,30.17,East,80,3.0,6.0,30,0.00,,,0.00,WeatherCatV1.13B119,2013-02-24 18:54:00,
2013-02-24 10:59:00,56.7,27.2,30.16,NE,43,2.0,8.0,32,0.00,,,0.00,WeatherCatV1.13B119,2013-02-24 18:59:00,
2013-02-24 11:04:00,57.0,27.4,30.17,SSW,200,2.0,2.0,32,0.00,,,0.00,WeatherCatV1.13B119,2013-02-24 19:04:00,
2013-02-24 11:09:00,57.4,27.8,30.17,NE,46,2.0,3.0,32,0.00,,,0.00,WeatherCatV1.13B119,2013-02-24 19:09:00,
2013-02-24 11:14:00,57.8,28.9,30.16,NE,34,4.0,5.0,33,0.00,,,0.00,WeatherCatV1.13B119,2013-02-24 19:14:00,
2013-02-24 11:19:00,57.4,25.4,30.16,SSW,207,3.0,6.0,29,0.00,,,0.00,WeatherCatV1.13B119,2013-02-24 19:19:00,
2013-02-24 11:24:00,57.4,27.0,30.16,ENE,61,0.0,4.0,31,0.00,,,0.00,WeatherCatV1.13B119,2013-02-24 19:24:00,
2013-02-24 11:29:00,57.6,28.0,30.16,East,89,1.0,5.0,32,0.00,,,0.00,WeatherCatV1.13B119,2013-02-24 19:29:00,
2013-02-24 11:34:00,58.1,26.8,30.16,SW,217,3.0,3.0,30,0.00,,,0.00,WeatherCatV1.13B119,2013-02-24 19:34:00,
2013-02-24 11:39:00,58.6,31.7,30.16,SSW,211,0.0,3.0,36,0.00,,,0.00,WeatherCatV1.13B119,2013-02-24 19:39:00,
2013-02-24 11:44:00,58.7,27.4,30.16,WSW,242,2.0,3.0,30,0.00,,,0.00,WeatherCatV1.13B119,2013-02-24 19:44:00,
2013-02-24 11:49:00,59.0,29.9,30.16,ESE,116,1.0,2.0,33,0.00,,,0.00,WeatherCatV1.13B119,2013-02-24 19:49:00,
2013-02-24 11:54:00,59.0,26.8,30.15,SSW,207,2.0,3.0,29,0.00,,,0.00,WeatherCatV1.13B119,2013-02-24 19:54:00,
2013-02-24 11:59:00,59.1,28.5,30.15,SE,134,2.0,3.0,31,0.00,,,0.00,WeatherCatV1.13B119,2013-02-24 19:59:00,
2013-02-24 12:04:00,59.5,30.4,30.15,South,190,3.0,3.0,33,0.00,,,0.00,WeatherCatV1.13B119,2013-02-24 20:04:00,
2013-02-24 12:09:00,59.8,30.6,30.15,SW,214,1.0,2.0,33,0.00,,,0.00,WeatherCatV1.13B119,2013-02-24 20:09:00,
2013-02-24 12:14:00,60.1,30.1,30.15,ESE,112,0.0,4.0,32,0.00,,,0.00,WeatherCatV1.13B119,2013-02-24 20:14:00,
2013-02-24 12:19:00,60.1,27.7,30.15,NE,42,0.0,4.0,29,0.00,,,0.00,WeatherCatV1.13B119,2013-02-24 20:19:00,
2013-02-24 12:24:00,59.8,25.8,30.15,ENE,59,0.0,3.0,27,0.00,,,0.00,WeatherCatV1.13B119,2013-02-24 20:24:00,
2013-02-24 12:29:00,60.1,31.6,30.14,WSW,250,4.0,4.0,34,0.00,,,0.00,WeatherCatV1.13B119,2013-02-24 20:29:00,
2013-02-24 12:34:00,60.3,28.7,30.14,SE,146,2.0,4.0,30,0.00,,,0.00,WeatherCatV1.13B119,2013-02-24 20:34:00,
2013-02-24 12:39:00,60.4,27.1,30.14,WSW,237,1.0,3.0,28,0.00,,,0.00,WeatherCatV1.13B119,2013-02-24 20:39:00,
2013-02-24 12:44:00,59.7,28.2,30.14,SW,233,4.0,4.0,30,0.00,,,0.00,WeatherCatV1.13B119,2013-02-24 20:44:00,
2013-02-24 12:49:00,60.1,33.7,30.13,West,275,3.0,5.0,37,0.00,,,0.00,WeatherCatV1.13B119,2013-02-24 20:49:00,
2013-02-24 12:54:00,59.9,35.5,30.13,North,355,4.0,6.0,40,0.00,,,0.00,WeatherCatV1.13B119,2013-02-24 20:54:00,
2013-02-24 12:59:00,59.6,35.2,30.13,West,281,3.0,4.0,40,0.00,,,0.00,WeatherCatV1.13B119,2013-02-24 20:59:00,
2013-02-24 13:04:00,59.6,34.0,30.13,WNW,283,4.0,9.0,38,0.00,,,0.00,WeatherCatV1.13B119,2013-02-24 21:04:00,
2013-02-24 13:09:00,59.3,35.0,30.12,West,279,3.0,7.0,40,0.00,,,0.00,WeatherCatV1.13B119,2013-02-24 21:09:00,
2013-02-24 13:14:00,59.5,34.5,30.12,WSW,244,7.0,7.0,39,0.00,,,0.00,WeatherCatV1.13B119,2013-02-24 21:14:00,
2013-02-24 13:19:00,59.5,37.0,30.12,SW,223,5.0,5.0,43,0.00,,,0.00,WeatherCatV1.13B119,2013-02-24 21:19:00,
2013-02-24 13:24:00,58.6,35.6,30.12,SW,217,4.0,6.0,42,0.00,,,0.00,WeatherCatV1.13B119,2013-02-24 21:24:00,
2013-02-24 13:29:00,58.4,37.1,30.12,WSW,240,4.0,12.0,45,0.00,,,0.00,WeatherCatV1.13B119,2013-02-24 21:29:00,
2013-02-24 13:34:00,58.5,35.5,30.12,SW,232,3.0,9.0,42,0.00,,,0.00,WeatherCatV1.13B119,2013-02-24 21:34:00,
2013-02-24 13:39:00,58.0,35.6,30.12,SW,226,3.0,9.0,43,0.00,,,0.00,WeatherCatV1.13B119,2013-02-24 21:39:00,
2013-02-24 13:44:00,57.4,36.2,30.12,WSW,248,4.0,7.0,45,0.00,,,0.00,WeatherCatV1.13B119,2013-02-24 21:44:00,
2013-02-24 13:49:00,57.8,37.2,30.12,SSW,204,2.0,6.0,46,0.00,,,0.00,WeatherCatV1.13B119,2013-02-24 21:49:00,
2013-02-24 13:54:00,57.6,38.1,30.12,WSW,241,1.0,11.0,48,0.00,,,0.00,WeatherCatV1.13B119,2013-02-24 21:54:00,
2013-02-24 13:59:00,57.0,35.3,30.12,WNW,284,2.0,11.0,44,0.00,,,0.00,WeatherCatV1.13B119,2013-02-24 21:59:00,
2013-02-24 14:04:00,56.7,35.6,30.12,SW,234,9.0,11.0,45,0.00,,,0.00,WeatherCatV1.13B119,2013-02-24 22:04:00,
2013-02-24 14:09:00,56.3,34.7,30.12,WSW,256,6.0,8.0,44,0.00,,,0.00,WeatherCatV1.13B119,2013-02-24 22:09:00,
2013-02-24 14:14:00,55.9,35.4,30.12,SW,219,3.0,7.0,46,0.00,,,0.00,WeatherCatV1.13B119,2013-02-24 22:14:00,
2013-02-24 14:19:00,56.0,36.6,30.12,WNW,284,4.0,8.0,48,0.00,,,0.00,WeatherCatV1.13B119,2013-02-24 22:19:00,
2013-02-24 14:24:00,55.5,35.1,30.12,SW,234,0.0,10.0,46,0.00,,,0.00,WeatherCatV1.13B119,2013-02-24 22:24:00,
2013-02-24 14:29:00,55.8,33.6,30.11,SE,132,0.0,7.0,43,0.00,,,0.00,WeatherCatV1.13B119,2013-02-24 22:29:00,
2013-02-24 14:34:00,55.9,36.5,30.11,SW,223,2.0,4.0,48,0.00,,,0.00,WeatherCatV1.13B119,2013-02-24 22:34:00,
2013-02-24 14:39:00,55.8,36.4,30.11,NW,313,1.0,6.0,48,0.00,,,0.00,WeatherCatV1.13B119,2013-02-24 22:39:00,
2013-02-24 14:44:00,55.6,33.5,30.11,NW,316,1.0,3.0,43,0.00,,,0.00,WeatherCatV1.13B119,2013-02-24 22:44:00,
2013-02-24 14:49:00,55.8,35.9,30.11,WNW,291,1.0,3.0,47,0.00,,,0.00,WeatherCatV1.13B119,2013-02-24 22:49:00,
2013-02-24 14:54:00,55.9,36.5,30.11,SSW,213,0.0,3.0,48,0.00,,,0.00,WeatherCatV1.13B119,2013-02-24 22:54:00,
2013-02-24 14:59:00,55.8,36.4,30.11,ENE,78,0.0,2.0,48,0.00,,,0.00,WeatherCatV1.13B119,2013-02-24 22:59:00,
2013-02-24 15:04:00,55.9,36.0,30.11,SSW,196,0.0,2.0,47,0.00,,,0.00,WeatherCatV1.13B119,2013-02-24 23:04:00,
2013-02-24 15:09:00,55.7,36.3,30.11,ENE,61,1.0,2.0,48,0.00,,,0.00,WeatherCatV1.13B119,2013-02-24 23:09:00,
2013-02-24 15:14:00,55.9,36.0,30.11,ESE,115,1.0,4.0,47,0.00,,,0.00,WeatherCatV1.13B119,2013-02-24 23:14:00,
2013-02-24 15:19:00,55.6,36.2,30.11,West,259,1.0,5.0,48,0.00,,,0.00,WeatherCatV1.13B119,2013-02-24 23:19:00,
2013-02-24 15:24:00,55.5,37.7,30.11,South,191,2.0,6.0,51,0.00,,,0.00,WeatherCatV1.13B119,2013-02-24 23:24:00,
2013-02-24 15:29:00,55.5,38.6,30.11,SW,220,0.0,3.0,53,0.00,,,0.00,WeatherCatV1.13B119,2013-02-24 23:29:00,
2013-02-24 15:34:00,55.6,38.7,30.11,WSW,253,1.0,2.0,53,0.00,,,0.00,WeatherCatV1.13B119,2013-02-24 23:34:00,
2013-02-24 15:39:00,55.4,39.0,30.11,NNW,341,3.0,3.0,54,0.00,,,0.00,WeatherCatV1.13B119,2013-02-24 23:39:00,
2013-02-24 15:44:00,55.1,39.2,30.11,NE,50,1.0,3.0,55,0.00,,,0.00,WeatherCatV1.13B119,2013-02-24 23:44:00,
2013-02-24 15:49:00,54.7,38.9,30.11,WNW,296,2.0,2.0,55,0.00,,,0.00,WeatherCatV1.13B119,2013-02-24 23:49:00,
2013-02-24 15:54:00,54.3,38.5,30.11,NW,313,0.0,3.0,55,0.00,,,0.00,WeatherCatV1.13B119,2013-02-24 23:54:00,
2013-02-24 15:59:00,53.9,38.6,30.11,North,350,1.0,4.0,56,0.00,,,0.00,WeatherCatV1.13B119,2013-02-24 23:59:00,
2013-02-24 16:04:00,53.6,38.3,30.11,NW,323,2.0,2.0,56,0.00,,,0.00,WeatherCatV1.13B119,2013-02-25 00:04:00,
2013-02-24 16:09:00,53.2,38.4,30.11,SE,145,0.0,4.0,57,0.00,,,0.00,WeatherCatV1.13B119,2013-02-25 00:09:00,
2013-02-24 16:14:00,52.6,38.2,30.11,NE,54,0.0,3.0,58,0.00,,,0.00,WeatherCatV1.13B119,2013-02-25 00:14:00,
2013-02-24 16:19:00,52.3,38.8,30.11,SSW,211,1.0,3.0,60,0.00,,,0.00,WeatherCatV1.13B119,2013-02-25 00:19:00,
2013-02-24 16:24:00,52.5,38.6,30.10,ENE,61,0.0,2.0,59,0.00,,,0.00,WeatherCatV1.13B119,2013-02-25 00:24:00,
2013-02-24 16:29:00,52.4,38.1,30.11,NNW,329,2.0,2.0,58,0.00,,,0.00,WeatherCatV1.13B119,2013-02-25 00:29:00,
2013-02-24 16:34:00,52.1,37.8,30.11,East,79,1.0,3.0,58,0.00,,,0.00,WeatherCatV1.13B119,2013-02-25 00:34:00,
2013-02-24 16:39:00,51.9,38.0,30.11,South,173,3.0,4.0,59,0.00,,,0.00,WeatherCatV1.13B119,2013-02-25 00:39:00,
2013-02-24 16:44:00,52.0,36.8,30.11,South,186,4.0,4.0,56,0.00,,,0.00,WeatherCatV1.13B119,2013-02-25 00:44:00,
2013-02-24 16:49:00,51.8,36.6,30.11,West,272,0.0,2.0,56,0.00,,,0.00,WeatherCatV1.13B119,2013-02-25 00:49:00,
2013-02-24 16:54:00,51.5,36.8,30.11,NNW,339,1.0,7.0,57,0.00,,,0.00,WeatherCatV1.13B119,2013-02-25 00:54:00,
2013-02-24 16:59:00,51.3,37.5,30.11,SSW,213,0.0,0.0,59,0.00,,,0.00,WeatherCatV1.13B119,2013-02-25 00:59:00,
2013-02-24 17:04:00,51.3,37.9,30.11,SSE,153,2.0,3.0,60,0.00,,,0.00,WeatherCatV1.13B119,2013-02-25 01:04:00,
2013-02-24 17:09:00,51.0,36.3,30.11,WSW,237,1.0,3.0,57,0.00,,,0.00,WeatherCatV1.13B119,2013-02-25 01:09:00,
2013-02-24 17:14:00,50.2,36.9,30.11,NW,321,0.0,0.0,60,0.00,,,0.00,WeatherCatV1.13B119,2013-02-25 01:14:00,
2013-02-24 17:19:00,49.3,36.0,30.11,ENE,61,1.0,1.0,60,0.00,,,0.00,WeatherCatV1.13B119,2013-02-25 01:19:00,
2013-02-24 17:24:00,48.8,35.5,30.11,ENE,63,0.0,2.0,60,0.00,,,0.00,WeatherCatV1.13B119,2013-02-25 01:24:00,
2013-02-24 17:29:00,48.6,35.3,30.11,ESE,122,0.0,0.0,60,0.00,,,0.00,WeatherCatV1.13B119,2013-02-25 01:29:00,
2013-02-24 17:34:00,48.1,35.3,30.10,SE,125,0.0,0.0,61,0.00,,,0.00,WeatherCatV1.13B119,2013-02-25 01:34:00,
2013-02-24 17:39:00,47.6,35.2,30.10,SSW,207,0.0,0.0,62,0.00,,,0.00,WeatherCatV1.13B119,2013-02-25 01:39:00,
2013-02-24 17:44:00,47.8,34.2,30.11,SSE,160,2.0,4.0,59,0.00,,,0.00,WeatherCatV1.13B119,2013-02-25 01:44:00,
2013-02-24 17:49:00,47.8,34.2,30.11,SW,223,0.0,0.0,59,0.00,,,0.00,WeatherCatV1.13B119,2013-02-25 01:49:00,
2013-02-24 17:54:00,47.4,33.4,30.11,SE,141,0.0,0.0,58,0.00,,,0.00,WeatherCatV1.13B119,2013-02-25 01:54:00,
2013-02-24 17:59:00,47.6,34.4,30.11,East,99,0.0,0.0,60,0.00,,,0.00,WeatherCatV1.13B119,2013-02-25 01:59:00,
2013-02-24 18:04:00,47.3,33.7,30.11,East,99,0.0,0.0,59,0.00,,,0.00,WeatherCatV1.13B119,2013-02-25 02:04:00,
2013-02-24 18:09:00,47.3,34.1,30.12,NW,311,0.0,0.0,60,0.00,,,0.00,WeatherCatV1.13B119,2013-02-25 02:09:00,
2013-02-24 18:14:00,47.1,34.8,30.12,NW,311,0.0,0.0,62,0.00,,,0.00,WeatherCatV1.13B119,2013-02-25 02:14:00,
2013-02-24 18:19:00,47.0,33.0,30.12,WSW,246,0.0,0.0,58,0.00,,,0.00,WeatherCatV1.13B119,2013-02-25 02:19:00,
2013-02-24 18:24:00,47.2,34.0,30.12,West,263,3.0,3.0,60,0.00,,,0.00,WeatherCatV1.13B119,2013-02-25 02:24:00,
2013-02-24 18:29:00,46.9,34.6,30.12,West,272,2.0,2.0,62,0.00,,,0.00,WeatherCatV1.13B119,2013-02-25 02:29:00,
2013-02-24 18:34:00,47.0,33.4,30.11,SW,221,0.0,0.0,59,0.00,,,0.00,WeatherCatV1.13B119,2013-02-25 02:34:00,
2013-02-24 18:39:00,46.8,32.4,30.11,SW,221,0.0,0.0,57,0.00,,,0.00,WeatherCatV1.13B119,2013-02-25 02:39:00,
2013-02-24 18:44:00,47.0,32.1,30.12,SW,221,0.0,0.0,56,0.00,,,0.00,WeatherCatV1.13B119,2013-02-25 02:44:00,
2013-02-24 18:49:00,47.3,32.0,30.12,SW,221,0.0,0.0,55,0.00,,,0.00,WeatherCatV1.13B119,2013-02-25 02:49:00,
2013-02-24 18:54:00,47.3,31.5,30.12,SW,221,0.0,0.0,54,0.00,,,0.00,WeatherCatV1.13B119,2013-02-25 02:54:00,
2013-02-24 18:59:00,47.2,31.4,30.12,SW,221,0.0,0.0,54,0.00,,,0.00,WeatherCatV1.13B119,2013-02-25 02:59:00,
2013-02-24 19:04:00,47.0,32.1,30.11,SW,221,0.0,0.0,56,0.00,,,0.00,WeatherCatV1.13B119,2013-02-25 03:04:00,
2013-02-24 19:09:00,47.1,32.2,30.11,SW,221,0.0,0.0,56,0.00,,,0.00,WeatherCatV1.13B119,2013-02-25 03:09:00,
2013-02-24 19:14:00,46.8,31.9,30.11,SW,221,0.0,0.0,56,0.00,,,0.00,WeatherCatV1.13B119,2013-02-25 03:14:00,
2013-02-24 19:19:00,46.4,32.0,30.11,SW,221,0.0,0.0,57,0.00,,,0.00,WeatherCatV1.13B119,2013-02-25 03:19:00,
2013-02-24 19:24:00,46.7,32.7,30.11,SW,221,0.0,0.0,58,0.00,,,0.00,WeatherCatV1.13B119,2013-02-25 03:24:00,
2013-02-24 19:29:00,46.8,33.2,30.11,SW,221,0.0,0.0,59,0.00,,,0.00,WeatherCatV1.13B119,2013-02-25 03:29:00,
2013-02-24 19:34:00,46.4,32.9,30.12,SW,221,0.0,0.0,59,0.00,,,0.00,WeatherCatV1.13B119,2013-02-25 03:34:00,
2013-02-24 19:39:00,46.0,32.9,30.12,WNW,288,2.0,2.0,60,0.00,,,0.00,WeatherCatV1.13B119,2013-02-25 03:39:00,
2013-02-24 19:44:00,45.9,35.6,30.12,West,266,2.0,3.0,67,0.00,,,0.00,WeatherCatV1.13B119,2013-02-25 03:44:00,
2013-02-24 19:49:00,45.6,35.7,30.12,SE,136,1.0,1.0,68,0.00,,,0.00,WeatherCatV1.13B119,2013-02-25 03:49:00,
2013-02-24 19:54:00,45.2,36.0,30.12,WSW,246,0.0,0.0,70,0.00,,,0.00,WeatherCatV1.13B119,2013-02-25 03:54:00,
2013-02-24 19:59:00,44.7,36.2,30.12,WSW,252,1.0,2.0,72,0.00,,,0.00,WeatherCatV1.13B119,2013-02-25 03:59:00,
2013-02-24 20:04:00,44.3,36.2,30.12,WSW,248,1.0,3.0,73,0.00,,,0.00,WeatherCatV1.13B119,2013-02-25 04:04:00,
2013-02-24 20:09:00,44.7,36.9,30.11,WSW,252,3.0,3.0,74,0.00,,,0.00,WeatherCatV1.13B119,2013-02-25 04:09:00,
2013-02-24 20:14:00,45.3,36.8,30.11,SW,230,2.0,2.0,72,0.00,,,0.00,WeatherCatV1.13B119,2013-02-25 04:14:00,
2013-02-24 20:19:00,45.7,36.1,30.11,SW,221,1.0,2.0,69,0.00,,,0.00,WeatherCatV1.13B119,2013-02-25 04:19:00,
2013-02-24 20:24:00,45.7,35.4,30.11,SSW,207,0.0,1.0,67,0.00,,,0.00,WeatherCatV1.13B119,2013-02-25 04:24:00,
2013-02-24 20:29:00,45.5,35.6,30.12,SW,219,1.0,1.0,68,0.00,,,0.00,WeatherCatV1.13B119,2013-02-25 04:29:00,
2013-02-24 20:34:00,45.3,35.4,30.12,SW,219,1.0,1.0,68,0.00,,,0.00,WeatherCatV1.13B119,2013-02-25 04:34:00,
2013-02-24 20:39:00,45.4,35.8,30.12,SW,219,0.0,0.0,69,0.00,,,0.00,WeatherCatV1.13B119,2013-02-25 04:39:00,
2013-02-24 20:44:00,45.6,35.7,30.12,SW,219,0.0,0.0,68,0.00,,,0.00,WeatherCatV1.13B119,2013-02-25 04:44:00,
2013-02-24 20:49:00,45.5,35.9,30.13,SW,219,0.0,0.0,69,0.00,,,0.00,WeatherCatV1.13B119,2013-02-25 04:49:00,
2013-02-24 20:54:00,45.2,36.4,30.12,SW,215,0.0,0.0,71,0.00,,,0.00,WeatherCatV1.13B119,2013-02-25 04:54:00,
2013-02-24 20:59:00,45.3,37.2,30.13,SSW,200,0.0,0.0,73,0.00,,,0.00,WeatherCatV1.13B119,2013-02-25 04:59:00,
2013-02-24 21:04:00,45.5,37.7,30.12,SW,215,0.0,0.0,74,0.00,,,0.00,WeatherCatV1.13B119,2013-02-25 05:04:00,
2013-02-24 21:09:00,45.6,38.1,30.12,SW,215,0.0,0.0,75,0.00,,,0.00,WeatherCatV1.13B119,2013-02-25 05:09:00,
2013-02-24 21:14:00,45.4,38.3,30.12,SW,215,0.0,0.0,76,0.00,,,0.00,WeatherCatV1.13B119,2013-02-25 05:14:00,
2013-02-24 21:19:00,45.5,38.4,30.12,WSW,240,0.0,0.0,76,0.00,,,0.00,WeatherCatV1.13B119,2013-02-25 05:19:00,
2013-02-24 21:24:00,45.2,37.4,30.13,WSW,238,0.0,0.0,74,0.00,,,0.00,WeatherCatV1.13B119,2013-02-25 05:24:00,
2013-02-24 21:29:00,44.8,36.7,30.13,South,173,0.0,0.0,73,0.00,,,0.00,WeatherCatV1.13B119,2013-02-25 05:29:00,
2013-02-24 21:34:00,44.5,36.7,30.13,NW,318,0.0,0.0,74,0.00,,,0.00,WeatherCatV1.13B119,2013-02-25 05:34:00,
2013-02-24 21:39:00,44.3,36.9,30.13,NW,317,0.0,0.0,75,0.00,,,0.00,WeatherCatV1.13B119,2013-02-25 05:39:00,
2013-02-24 21:44:00,44.7,37.6,30.13,WSW,237,0.0,0.0,76,0.00,,,0.00,WeatherCatV1.13B119,2013-02-25 05:44:00,
2013-02-24 21:49:00,45.0,37.6,30.13,NNW,338,0.0,0.0,75,0.00,,,0.00,WeatherCatV1.13B119,2013-02-25 05:49:00,
2013-02-24 21:54:00,45.1,37.7,30.14,West,268,0.0,0.0,75,0.00,,,0.00,WeatherCatV1.13B119,2013-02-25 05:54:00,
2013-02-24 21:59:00,44.8,37.7,30.14,West,264,0.0,0.0,76,0.00,,,0.00,WeatherCatV1.13B119,2013-02-25 05:59:00,
2013-02-24 22:04:00,45.0,37.9,30.13,WSW,245,0.0,0.0,76,0.00,,,0.00,WeatherCatV1.13B119,2013-02-25 06:04:00,
2013-02-24 22:09:00,44.9,37.5,30.13,WSW,245,0.0,0.0,75,0.00,,,0.00,WeatherCatV1.13B119,2013-02-25 06:09:00,
2013-02-24 22:14:00,44.7,37.6,30.13,WSW,245,0.0,0.0,76,0.00,,,0.00,WeatherCatV1.13B119,2013-02-25 06:14:00,
2013-02-24 22:19:00,44.5,37.4,30.14,NNE,17,0.0,2.0,76,0.00,,,0.00,WeatherCatV1.13B119,2013-02-25 06:19:00,
2013-02-24 22:24:00,44.2,37.1,30.14,West,262,0.0,0.0,76,0.00,,,0.00,WeatherCatV1.13B119,2013-02-25 06:24:00,
2013-02-24 22:29:00,44.1,37.4,30.14,West,263,0.0,0.0,77,0.00,,,0.00,WeatherCatV1.13B119,2013-02-25 06:29:00,
2013-02-24 22:34:00,44.6,37.8,30.14,WSW,241,0.0,2.0,77,0.00,,,0.00,WeatherCatV1.13B119,2013-02-25 06:34:00,
2013-02-24 22:39:00,45.6,38.8,30.14,WNW,295,4.0,4.0,77,0.00,,,0.00,WeatherCatV1.13B119,2013-02-25 06:39:00,
2013-02-24 22:44:00,45.8,39.0,30.14,NW,323,3.0,3.0,77,0.00,,,0.00,WeatherCatV1.13B119,2013-02-25 06:44:00,
2013-02-24 22:49:00,45.2,38.1,30.14,West,275,0.0,3.0,76,0.00,,,0.00,WeatherCatV1.13B119,2013-02-25 06:49:00,
2013-02-24 22:54:00,44.4,37.0,30.14,West,260,1.0,3.0,75,0.00,,,0.00,WeatherCatV1.13B119,2013-02-25 06:54:00,
2013-02-24 22:59:00,44.1,35.3,30.14,West,269,2.0,2.0,71,0.00,,,0.00,WeatherCatV1.13B119,2013-02-25 06:59:00,
2013-02-24 23:04:00,44.1,33.1,30.14,West,269,3.0,3.0,65,0.00,,,0.00,WeatherCatV1.13B119,2013-02-25 07:04:00,
2013-02-24 23:09:00,44.0,31.8,30.15,NNW,332,1.0,3.0,62,0.00,,,0.00,WeatherCatV1.13B119,2013-02-25 07:09:00,
2013-02-24 23:14:00,43.7,29.9,30.15,NNW,331,1.0,4.0,58,0.00,,,0.00,WeatherCatV1.13B119,2013-02-25 07:14:00,
2013-02-24 23:19:00,43.4,28.3,30.15,NNW,344,0.0,2.0,55,0.00,,,0.00,WeatherCatV1.13B119,2013-02-25 07:19:00,
2013-02-24 23:24:00,43.2,25.8,30.15,WNW,288,3.0,3.0,50,0.00,,,0.00,WeatherCatV1.13B119,2013-02-25 07:24:00,
2013-02-24 23:29:00,43.1,24.8,30.15,WNW,294,0.0,0.0,48,0.00,,,0.00,WeatherCatV1.13B119,2013-02-25 07:29:00,
2013-02-24 23:34:00,43.1,25.3,30.14,NNW,327,2.0,3.0,49,0.00,,,0.00,WeatherCatV1.13B119,2013-02-25 07:34:00,
2013-02-24 23:39:00,42.9,26.0,30.15,NNW,333,3.0,3.0,51,0.00,,,0.00,WeatherCatV1.13B119,2013-02-25 07:39:00,
2013-02-24 23:43:00,43.0,24.7,30.15,WNW,303,0.0,0.0,48,0.00,,,0.00,WeatherCatV1.13B119,2013-02-25 07:43:00,
2013-02-24 23:49:00,43.0,25.6,30.15,NNE,15,0.0,0.0,50,0.00,,,0.00,WeatherCatV1.13B119,2013-02-25 07:49:00,
2013-02-24 23:53:00,42.9,26.0,30.15,NW,322,0.0,0.0,51,0.00,,,0.00,WeatherCatV1.13B119,2013-02-25 07:53:00,
2013-02-24 23:59:00,42.7,25.4,30.15,West,279,0.0,0.0,50,0.00,,,0.00,WeatherCatV1.13B119,2013-02-25 07:59:00,